This is the latest recevied weather packets stored in our database for station/object KO4LFZ. If no packets are shown the sender has not sent any weather packets the latest 10 day(s).
| Time | Temp. | Humidity | Pressure | Rain* | Wind** | Luminosity | Snow |
|---|---|---|---|---|---|---|---|
| 1778200204 | 18.89° C | 45% | 1015.4 hPa | 0 mm | - | 13 W/m² | - |
| 1778199900 | 19.44° C | 41% | 1015.3 hPa | 0 mm | - | 17 W/m² | - |
| 1778199597 | 19.44° C | 41% | 1015.3 hPa | 0 mm | - | 21 W/m² | - |
| 1778199293 | 18.89° C | 39% | 1015.2 hPa | 0 mm | - | 24 W/m² | - |
| 1778198990 | 18.89° C | 39% | 1015.1 hPa | 0 mm | - | 29 W/m² | - |
| 1778198685 | 18.89° C | 40% | 1015.3 hPa | 0 mm | - | 32 W/m² | - |
| 1778198382 | 18.89° C | 41% | 1015.2 hPa | 0 mm | - | 37 W/m² | - |
| 1778198079 | 18.33° C | 40% | 1015.1 hPa | 0 mm | - | 41 W/m² | - |
| 1778197777 | 18.89° C | 44% | 1015.1 hPa | 0 mm | - | 47 W/m² | - |
| 1778197473 | 18.89° C | 41% | 1015.1 hPa | 0 mm | - | 52 W/m² | - |
| 1778197170 | 18.89° C | 41% | 1015.1 hPa | 0 mm | - | 58 W/m² | - |
| 1778196867 | 18.89° C | 40% | 1015 hPa | 0 mm | - | 83 W/m² | - |
| 1778196565 | 18.89° C | 41% | 1015.1 hPa | 0 mm | - | 97 W/m² | - |
| 1778196261 | 18.89° C | 40% | 1015.2 hPa | 0 mm | - | 115 W/m² | - |
| 1778195959 | 18.89° C | 40% | 1015.2 hPa | 0 mm | - | 115 W/m² | - |
| 1778195655 | 18.89° C | 42% | 1015.1 hPa | 0 mm | - | 130 W/m² | - |
| 1778195352 | 18.89° C | 40% | 1015 hPa | 0 mm | - | 148 W/m² | - |
| 1778195049 | 18.89° C | 40% | 1015.2 hPa | 0 mm | - | 168 W/m² | - |
| 1778194749 | 18.89° C | 40% | 1015.2 hPa | 0 mm | - | 168 W/m² | - |
| 1778194446 | 18.89° C | 41% | 1015.3 hPa | 0 mm | - | 185 W/m² | - |
| 1778194142 | 18.89° C | 41% | 1015.1 hPa | 0 mm | - | 209 W/m² | - |
| 1778193838 | 18.89° C | 41% | 1015.4 hPa | 0 mm | - | 224 W/m² | - |
| 1778193534 | 18.89° C | 41% | 1015.1 hPa | 0 mm | - | 236 W/m² | - |
| 1778193231 | 18.89° C | 41% | 1015.4 hPa | 0 mm | - | 246 W/m² | - |
| 1778192928 | 18.89° C | 41% | 1015.3 hPa | 0 mm | - | 258 W/m² | - |
* Rain latest hour (hover to see other rain measurements)
** Current wind speed in m/s (hover to see current wind gust speed)